Time,TemperatureF,DewpointF,PressureIn,WindDirection,WindDirectionDegrees,WindSpeedMPH,WindSpeedGustMPH,Humidity,HourlyPrecipIn,Conditions,Clouds,dailyrainin,SoftwareType,DateUTC
2013-05-07 00:07:00,60.6,60.0,29.82,ESE,112,0.0,-999.0,98,-99.99,,,0.00,Acu-Link.com,2013-05-07 05:07:00,
2013-05-07 00:22:00,59.9,59.3,29.82,ENE,67,0.0,-999.0,98,-99.99,,,0.00,Acu-Link.com,2013-05-07 05:22:00,
2013-05-07 00:37:00,59.4,58.8,29.84,South,180,0.0,-999.0,98,-99.99,,,0.00,Acu-Link.com,2013-05-07 05:37:00,
2013-05-07 00:52:00,58.6,58.0,29.83,SSE,157,0.0,-999.0,98,-99.99,,,0.00,Acu-Link.com,2013-05-07 05:52:00,
2013-05-07 01:08:00,58.3,57.7,29.84,West,270,0.0,-999.0,98,-99.99,,,0.00,Acu-Link.com,2013-05-07 06:08:00,
2013-05-07 01:23:00,57.9,57.3,29.84,SSW,202,0.0,-999.0,98,-99.99,,,0.00,Acu-Link.com,2013-05-07 06:23:00,
2013-05-07 01:38:00,58.1,57.5,29.84,SSW,202,0.0,-999.0,98,-99.99,,,0.00,Acu-Link.com,2013-05-07 06:38:00,
2013-05-07 01:53:00,58.5,57.9,29.83,SW,225,0.0,-999.0,98,-99.99,,,0.00,Acu-Link.com,2013-05-07 06:53:00,
2013-05-07 02:08:00,59.2,58.6,29.83,SW,225,0.0,-999.0,98,-99.99,,,0.00,Acu-Link.com,2013-05-07 07:08:00,
2013-05-07 02:23:00,59.5,58.9,29.83,West,270,1.1,-999.0,98,-99.99,,,0.00,Acu-Link.com,2013-05-07 07:23:00,
2013-05-07 02:38:00,60.1,59.5,29.83,SSW,202,0.0,-999.0,98,-99.99,,,0.00,Acu-Link.com,2013-05-07 07:38:00,
2013-05-07 02:53:00,60.3,59.7,29.83,SW,225,1.1,-999.0,98,-99.99,,,0.00,Acu-Link.com,2013-05-07 07:53:00,
2013-05-07 03:09:00,60.3,59.7,29.83,SW,225,0.0,-999.0,98,-99.99,,,0.00,Acu-Link.com,2013-05-07 08:09:00,
2013-05-07 03:25:00,60.4,59.8,29.83,West,270,0.0,-999.0,98,-99.99,,,0.00,Acu-Link.com,2013-05-07 08:25:00,
2013-05-07 03:40:00,60.6,60.0,29.83,West,270,1.7,-999.0,98,-99.99,,,0.00,Acu-Link.com,2013-05-07 08:40:00,
2013-05-07 03:55:00,60.8,60.2,29.84,West,270,0.0,-999.0,98,-99.99,,,0.00,Acu-Link.com,2013-05-07 08:55:00,
2013-05-07 04:10:00,60.8,60.2,29.84,West,270,1.1,-999.0,98,-99.99,,,0.00,Acu-Link.com,2013-05-07 09:10:00,
2013-05-07 04:25:00,60.8,60.2,29.85,SSW,202,0.0,-999.0,98,-99.99,,,0.00,Acu-Link.com,2013-05-07 09:25:00,
2013-05-07 04:40:00,60.8,60.2,29.84,SW,225,0.0,-999.0,98,-99.99,,,0.00,Acu-Link.com,2013-05-07 09:40:00,
2013-05-07 04:55:00,60.4,59.8,29.84,South,180,0.0,-999.0,98,-99.99,,,0.00,Acu-Link.com,2013-05-07 09:55:00,
2013-05-07 05:11:00,59.5,58.9,29.84,SSW,202,0.0,-999.0,98,-99.99,,,0.00,Acu-Link.com,2013-05-07 10:11:00,
2013-05-07 05:26:00,59.0,58.4,29.85,SSW,202,0.0,-999.0,98,-99.99,,,0.00,Acu-Link.com,2013-05-07 10:26:00,
2013-05-07 05:41:00,58.1,57.5,29.85,SSE,157,0.0,-999.0,98,-99.99,,,0.00,Acu-Link.com,2013-05-07 10:41:00,
2013-05-07 05:56:00,57.4,56.8,29.85,SSE,157,0.0,-999.0,98,-99.99,,,0.00,Acu-Link.com,2013-05-07 10:56:00,
2013-05-07 06:11:00,57.2,56.6,29.86,SSW,202,0.0,-999.0,98,-99.99,,,0.00,Acu-Link.com,2013-05-07 11:11:00,
2013-05-07 06:26:00,56.5,55.9,29.87,East,90,0.0,-999.0,98,-99.99,,,0.00,Acu-Link.com,2013-05-07 11:26:00,
2013-05-07 06:41:00,56.3,55.7,29.87,SE,135,0.0,-999.0,98,-99.99,,,0.00,Acu-Link.com,2013-05-07 11:41:00,
2013-05-07 06:56:00,56.8,56.2,29.87,WNW,292,0.0,-999.0,98,-99.99,,,0.00,Acu-Link.com,2013-05-07 11:56:00,
2013-05-07 07:11:00,60.1,59.5,29.87,SSW,202,0.0,-999.0,98,-99.99,,,0.00,Acu-Link.com,2013-05-07 12:11:00,
2013-05-07 07:27:00,61.7,61.1,29.88,NW,315,1.7,-999.0,98,-99.99,,,0.00,Acu-Link.com,2013-05-07 12:27:00,
2013-05-07 07:42:00,64.0,63.4,29.88,West,270,2.7,-999.0,98,-99.99,,,0.00,Acu-Link.com,2013-05-07 12:42:00,
2013-05-07 07:57:00,66.2,65.6,29.89,West,270,2.2,-999.0,98,-99.99,,,0.00,Acu-Link.com,2013-05-07 12:57:00,
2013-05-07 08:12:00,67.8,67.2,29.89,WNW,292,3.2,-999.0,98,-99.99,,,0.00,Acu-Link.com,2013-05-07 13:12:00,
2013-05-07 08:27:00,70.2,67.4,29.89,North,0,3.7,-999.0,91,-99.99,,,0.00,Acu-Link.com,2013-05-07 13:27:00,
2013-05-07 08:42:00,72.7,66.9,29.89,NNW,337,1.1,-999.0,82,-99.99,,,0.00,Acu-Link.com,2013-05-07 13:42:00,
2013-05-07 08:57:00,75.7,66.8,29.89,NW,315,2.7,-999.0,74,-99.99,,,0.00,Acu-Link.com,2013-05-07 13:57:00,
2013-05-07 09:12:00,79.2,67.7,29.89,West,270,2.2,-999.0,68,-99.99,,,0.00,Acu-Link.com,2013-05-07 14:12:00,
2013-05-07 09:27:00,75.9,65.8,29.90,North,0,1.1,-999.0,71,-99.99,,,0.00,Acu-Link.com,2013-05-07 14:27:00,
2013-05-07 09:43:00,75.2,65.1,29.90,SW,225,2.7,-999.0,71,-99.99,,,0.00,Acu-Link.com,2013-05-07 14:43:00,
2013-05-07 09:58:00,76.1,65.6,29.90,West,270,2.2,-999.0,70,-99.99,,,0.00,Acu-Link.com,2013-05-07 14:58:00,
2013-05-07 10:13:00,78.8,64.2,29.89,ESE,112,0.0,-999.0,61,-99.99,,,0.00,Acu-Link.com,2013-05-07 15:13:00,
2013-05-07 10:28:00,78.3,63.7,29.89,West,270,1.1,-999.0,61,-99.99,,,0.00,Acu-Link.com,2013-05-07 15:28:00,
2013-05-07 10:43:00,79.9,64.8,29.90,WSW,247,1.1,-999.0,60,-99.99,,,0.00,Acu-Link.com,2013-05-07 15:43:00,
2013-05-07 10:58:00,80.6,63.4,29.89,West,270,3.2,-999.0,56,-99.99,,,0.00,Acu-Link.com,2013-05-07 15:58:00,
2013-05-07 11:13:00,80.6,64.4,29.89,South,180,1.7,-999.0,58,-99.99,,,0.00,Acu-Link.com,2013-05-07 16:13:00,
2013-05-07 11:28:00,81.1,63.9,29.89,WNW,292,5.3,-999.0,56,-99.99,,,0.00,Acu-Link.com,2013-05-07 16:28:00,
2013-05-07 11:43:00,81.1,62.3,29.89,SSW,202,2.2,-999.0,53,-99.99,,,0.00,Acu-Link.com,2013-05-07 16:43:00,
2013-05-07 11:59:00,82.8,65.0,29.89,WNW,292,5.3,-999.0,55,-99.99,,,0.00,Acu-Link.com,2013-05-07 16:59:00,
2013-05-07 12:14:00,82.2,63.9,29.88,SSE,157,1.7,-999.0,54,-99.99,,,0.00,Acu-Link.com,2013-05-07 17:14:00,
2013-05-07 12:29:00,82.4,64.1,29.88,North,0,1.7,-999.0,54,-99.99,,,0.00,Acu-Link.com,2013-05-07 17:29:00,
2013-05-07 12:44:00,82.6,62.6,29.87,West,270,2.2,-999.0,51,-99.99,,,0.00,Acu-Link.com,2013-05-07 17:44:00,
2013-05-07 12:59:00,83.7,64.2,29.86,SW,225,3.7,-999.0,52,-99.99,,,0.00,Acu-Link.com,2013-05-07 17:59:00,
2013-05-07 13:14:00,82.9,62.9,29.85,SW,225,2.2,-999.0,51,-99.99,,,0.00,Acu-Link.com,2013-05-07 18:14:00,
2013-05-07 13:29:00,84.0,62.8,29.84,SW,225,5.3,-999.0,49,-99.99,,,0.00,Acu-Link.com,2013-05-07 18:29:00,
2013-05-07 13:44:00,84.6,63.3,29.84,SSW,202,2.7,-999.0,49,-99.99,,,0.00,Acu-Link.com,2013-05-07 18:44:00,
2013-05-07 13:59:00,84.9,63.6,29.84,North,0,1.7,-999.0,49,-99.99,,,0.00,Acu-Link.com,2013-05-07 18:59:00,
2013-05-07 14:14:00,84.4,64.3,29.84,WNW,292,0.0,-999.0,51,-99.99,,,0.00,Acu-Link.com,2013-05-07 19:14:00,
2013-05-07 14:30:00,86.5,64.4,29.83,SW,225,6.3,-999.0,48,-99.99,,,0.00,Acu-Link.com,2013-05-07 19:30:00,
2013-05-07 14:45:00,86.4,64.9,29.82,WNW,292,5.8,-999.0,49,-99.99,,,0.00,Acu-Link.com,2013-05-07 19:45:00,
2013-05-07 15:00:00,86.0,65.7,29.82,ESE,112,3.2,-999.0,51,-99.99,,,0.00,Acu-Link.com,2013-05-07 20:00:00,
2013-05-07 15:15:00,86.9,63.6,29.81,WSW,247,6.3,-999.0,46,-99.99,,,0.00,Acu-Link.com,2013-05-07 20:15:00,
2013-05-07 15:30:00,86.2,64.2,29.80,SE,135,1.7,-999.0,48,-99.99,,,0.00,Acu-Link.com,2013-05-07 20:30:00,
2013-05-07 15:45:00,86.5,63.2,29.80,West,270,4.2,-999.0,46,-99.99,,,0.00,Acu-Link.com,2013-05-07 20:45:00,
2013-05-07 16:00:00,86.5,63.2,29.79,West,270,3.2,-999.0,46,-99.99,,,0.00,Acu-Link.com,2013-05-07 21:00:00,
2013-05-07 16:15:00,87.6,63.6,29.79,West,270,2.7,-999.0,45,-99.99,,,0.00,Acu-Link.com,2013-05-07 21:15:00,
2013-05-07 16:30:00,86.5,63.2,29.77,WNW,292,0.0,-999.0,46,-99.99,,,0.00,Acu-Link.com,2013-05-07 21:30:00,
2013-05-07 16:46:00,87.1,63.8,29.78,West,270,2.7,-999.0,46,-99.99,,,0.00,Acu-Link.com,2013-05-07 21:46:00,
2013-05-07 17:01:00,85.8,62.6,29.77,South,180,3.2,-999.0,46,-99.99,,,0.00,Acu-Link.com,2013-05-07 22:01:00,
2013-05-07 17:16:00,88.9,64.1,29.77,WSW,247,3.2,-999.0,44,-99.99,,,0.00,Acu-Link.com,2013-05-07 22:16:00,
2013-05-07 17:31:00,86.0,63.4,29.77,SSW,202,3.2,-999.0,47,-99.99,,,0.00,Acu-Link.com,2013-05-07 22:31:00,
2013-05-07 17:46:00,87.6,63.6,29.76,West,270,2.7,-999.0,45,-99.99,,,0.00,Acu-Link.com,2013-05-07 22:46:00,
2013-05-07 18:01:00,90.9,65.3,29.76,West,270,2.7,-999.0,43,-99.99,,,0.00,Acu-Link.com,2013-05-07 23:01:00,
2013-05-07 18:16:00,91.0,64.7,29.76,SSW,202,2.7,-999.0,42,-99.99,,,0.00,Acu-Link.com,2013-05-07 23:16:00,
2013-05-07 18:32:00,86.5,65.6,29.76,SSE,157,6.3,-999.0,50,-99.99,,,0.00,Acu-Link.com,2013-05-07 23:32:00,
2013-05-07 18:47:00,83.1,65.2,29.76,SSE,157,3.2,-999.0,55,-99.99,,,0.00,Acu-Link.com,2013-05-07 23:47:00,
2013-05-07 19:02:00,82.6,65.8,29.77,East,90,4.7,-999.0,57,-99.99,,,0.00,Acu-Link.com,2013-05-08 00:02:00,
2013-05-07 19:17:00,80.6,64.9,29.77,SSE,157,2.7,-999.0,59,-99.99,,,0.00,Acu-Link.com,2013-05-08 00:17:00,
2013-05-07 19:32:00,79.0,63.9,29.78,SSW,202,6.8,-999.0,60,-99.99,,,0.00,Acu-Link.com,2013-05-08 00:32:00,
2013-05-07 19:47:00,76.3,63.2,29.79,West,270,2.7,-999.0,64,-99.99,,,0.00,Acu-Link.com,2013-05-08 00:47:00,
2013-05-07 20:02:00,75.0,63.3,29.79,SW,225,2.2,-999.0,67,-99.99,,,0.00,Acu-Link.com,2013-05-08 01:02:00,
2013-05-07 20:18:00,73.4,63.0,29.79,SE,135,1.7,-999.0,70,-99.99,,,0.00,Acu-Link.com,2013-05-08 01:18:00,
2013-05-07 20:33:00,72.3,62.8,29.80,SW,225,3.7,-999.0,72,-99.99,,,0.00,Acu-Link.com,2013-05-08 01:33:00,
2013-05-07 20:48:00,71.2,62.5,29.81,SSW,202,0.0,-999.0,74,-99.99,,,0.00,Acu-Link.com,2013-05-08 01:48:00,
2013-05-07 21:03:00,70.3,62.7,29.82,WSW,247,0.0,-999.0,77,-99.99,,,0.00,Acu-Link.com,2013-05-08 02:03:00,
2013-05-07 21:18:00,69.6,62.8,29.81,SSW,202,0.0,-999.0,79,-99.99,,,0.00,Acu-Link.com,2013-05-08 02:18:00,
2013-05-07 21:34:00,68.9,63.2,29.82,SSW,202,2.7,-999.0,82,-99.99,,,0.00,Acu-Link.com,2013-05-08 02:34:00,
2013-05-07 21:49:00,68.0,63.3,29.83,SSW,202,0.0,-999.0,85,-99.99,,,0.00,Acu-Link.com,2013-05-08 02:49:00,
2013-05-07 22:04:00,67.5,63.5,29.83,SE,135,0.0,-999.0,87,-99.99,,,0.00,Acu-Link.com,2013-05-08 03:04:00,
2013-05-07 22:19:00,66.9,63.9,29.83,South,180,1.1,-999.0,90,-99.99,,,0.00,Acu-Link.com,2013-05-08 03:19:00,
2013-05-07 22:34:00,66.2,64.1,29.83,SE,135,0.0,-999.0,93,-99.99,,,0.00,Acu-Link.com,2013-05-08 03:34:00,
2013-05-07 22:49:00,65.7,65.1,29.83,SSW,202,0.0,-999.0,98,-99.99,,,0.00,Acu-Link.com,2013-05-08 03:49:00,
2013-05-07 23:04:00,65.3,64.7,29.84,SE,135,0.0,-999.0,98,-99.99,,,0.00,Acu-Link.com,2013-05-08 04:04:00,
2013-05-07 23:19:00,64.9,64.3,29.84,SSE,157,0.0,-999.0,98,-99.99,,,0.00,Acu-Link.com,2013-05-08 04:19:00,
2013-05-07 23:34:00,64.6,64.0,29.84,WSW,247,0.0,-999.0,98,-99.99,,,0.00,Acu-Link.com,2013-05-08 04:34:00,
2013-05-07 23:50:00,64.2,63.6,29.84,SE,135,0.0,-999.0,98,-99.99,,,0.00,Acu-Link.com,2013-05-08 04:50:00,